When you browse on this site, cookies collect data to enhance your experience and personalize the content and advertising you see.
Visit our Privacy Policy to learn more. By continuing to use the site, you agree to this use of cookies and data.
  • In Romania
  • List of Countries
  • For 7 days
  • Water Temperature
  • Satellite Maps
  • Weather Map
  • Weather Widgets
  • user-avatar
    Login

    Hourly Weather Nashua

    Today, 21 March, Thursday

    Time Temperature Precipitation Wind Pressure Humidity
    00:00 +1°C° 0 mm 2 mps 765 mmHg 70%
    01:00 +1°C° 0 mm 2 mps 765 mmHg 74%
    02:00 -1°C° 0 mm 2 mps 765 mmHg 77%
    03:00 +1°C° 0 mm 1 mps 765 mmHg 81%
    04:00 0°C° 0 mm 1 mps 764 mmHg 85%
    05:00 +1°C° 0 mm 1 mps 764 mmHg 82%
    06:00 +2°C° 0 mm 1 mps 764 mmHg 79%
    07:00 +2°C° 0 mm 1 mps 764 mmHg 76%
    08:00 +4°C° 0 mm 2 mps 763 mmHg 66%
    09:00 +5°C° 0 mm 3 mps 763 mmHg 57%
    10:00 +8°C° 0 mm 4 mps 763 mmHg 47%
    11:00 +8°C° 0 mm 4 mps 762 mmHg 46%
    12:00 +8°C° 0 mm 4 mps 762 mmHg 45%
    13:00 +10°C° 0 mm 4 mps 761 mmHg 44%
    14:00 +10°C° 0 mm 4 mps 760 mmHg 45%
    15:00 +9°C° 0 mm 3 mps 759 mmHg 46%
    16:00 +9°C° 0 mm 3 mps 758 mmHg 47%
    17:00 +8°C° 0 mm 3 mps 758 mmHg 53%
    18:00 +6°C° 0 mm 2 mps 758 mmHg 59%
    19:00 +5°C° 0 mm 2 mps 758 mmHg 66%
    20:00 +4°C° 0 mm 2 mps 757 mmHg 70%
    21:00 +4°C° 0 mm 2 mps 756 mmHg 74%
    22:00 +3°C° 0 mm 2 mps 755 mmHg 77%
    23:00 +2°C° 0.9 mm 3 mps 754 mmHg 83%

    Tomorrow, 22 March, Friday

    Time Temperature Precipitation Wind Pressure Humidity
    00:00 +2°C° 0.9 mm 3 mps 752 mmHg 88%
    01:00 +3°C° 0.9 mm 3 mps 751 mmHg 94%
    02:00 +3°C° 4.7 mm 4 mps 749 mmHg 94%
    03:00 +3°C° 4.7 mm 4 mps 747 mmHg 95%
    04:00 +2°C° 4.7 mm 5 mps 745 mmHg 96%
    05:00 +3°C° 1.5 mm 4 mps 744 mmHg 95%
    06:00 +3°C° 1.5 mm 4 mps 742 mmHg 95%
    07:00 +3°C° 1.5 mm 4 mps 741 mmHg 95%
    08:00 +4°C° 0.1 mm 3 mps 740 mmHg 94%
    09:00 +4°C° 0.1 mm 3 mps 739 mmHg 93%
    10:00 +5°C° 0.1 mm 2 mps 738 mmHg 92%
    11:00 +5°C° 0.1 mm 3 mps 738 mmHg 90%
    12:00 +5°C° 0.1 mm 3 mps 737 mmHg 87%
    13:00 +6°C° 0.1 mm 4 mps 737 mmHg 85%
    14:00 +6°C° 0 mm 4 mps 737 mmHg 81%
    15:00 +7°C° 0 mm 5 mps 736 mmHg 77%
    16:00 +7°C° 0 mm 5 mps 736 mmHg 73%
    17:00 +6°C° 0 mm 5 mps 737 mmHg 75%
    18:00 +5°C° 0 mm 5 mps 737 mmHg 77%
    19:00 +4°C° 0 mm 4 mps 737 mmHg 79%
    20:00 +3°C° 0 mm 4 mps 737 mmHg 79%
    21:00 +3°C° 0 mm 4 mps 737 mmHg 79%
    22:00 +3°C° 0 mm 4 mps 737 mmHg 80%
    23:00 +3°C° 0.2 mm 4 mps 737 mmHg 79%

    Day after tomorrow, 23 March, Saturday

    Time Temperature Precipitation Wind Pressure Humidity
    00:00 +2°C° 0.2 mm 5 mps 737 mmHg 78%
    01:00 +2°C° 0.2 mm 5 mps 737 mmHg 77%
    02:00 +2°C° 0.5 mm 6 mps 737 mmHg 76%
    03:00 0°C° 0.5 mm 7 mps 737 mmHg 74%
    04:00 0°C° 0.5 mm 8 mps 738 mmHg 73%
    05:00 0°C° 0.1 mm 8 mps 739 mmHg 71%
    06:00 0°C° 0.1 mm 8 mps 740 mmHg 70%
    07:00 0°C° 0.1 mm 8 mps 741 mmHg 68%
    08:00 0°C° 0 mm 8 mps 742 mmHg 65%
    09:00 +1°C° 0 mm 9 mps 743 mmHg 62%
    10:00 +1°C° 0 mm 9 mps 744 mmHg 59%
    11:00 +2°C° 0 mm 9 mps 745 mmHg 57%
    12:00 +2°C° 0 mm 8 mps 746 mmHg 56%
    13:00 +4°C° 0 mm 8 mps 747 mmHg 54%
    14:00 +4°C° 0 mm 8 mps 748 mmHg 55%
    15:00 +3°C° 0 mm 7 mps 749 mmHg 57%
    16:00 +3°C° 0 mm 7 mps 750 mmHg 59%
    17:00 +2°C° 0 mm 7 mps 751 mmHg 60%
    18:00 +1°C° 0 mm 6 mps 753 mmHg 61%
    19:00 -2°C° 0 mm 6 mps 754 mmHg 62%
    20:00 -2°C° 0 mm 6 mps 755 mmHg 60%
    21:00 -3°C° 0 mm 6 mps 755 mmHg 58%
    22:00 -2°C° 0 mm 5 mps 756 mmHg 56%
    23:00 -2°C° 0 mm 5 mps 756 mmHg 55%

    24 March, Sunday

    Time Temperature Precipitation Wind Pressure Humidity
    00:00 -2°C° 0 mm 5 mps 757 mmHg 53%
    01:00 -2°C° 0 mm 4 mps 757 mmHg 51%
    02:00 -2°C° 0 mm 4 mps 757 mmHg 51%
    03:00 -2°C° 0 mm 4 mps 757 mmHg 51%
    04:00 -2°C° 0 mm 4 mps 758 mmHg 51%
    05:00 -1°C° 0 mm 4 mps 758 mmHg 49%
    06:00 -1°C° 0 mm 5 mps 758 mmHg 48%
    07:00 0°C° 0 mm 5 mps 758 mmHg 46%
    08:00 +3°C° 0 mm 5 mps 758 mmHg 43%
    09:00 +6°C° 0 mm 5 mps 758 mmHg 39%
    10:00 +8°C° 0 mm 5 mps 758 mmHg 35%
    11:00 +10°C° 0 mm 5 mps 757 mmHg 34%
    12:00 +12°C° 0 mm 5 mps 757 mmHg 32%
    13:00 +13°C° 0 mm 6 mps 757 mmHg 31%
    14:00 +13°C° 0 mm 5 mps 757 mmHg 34%
    15:00 +12°C° 0 mm 5 mps 757 mmHg 36%
    16:00 +12°C° 0 mm 5 mps 757 mmHg 39%
    17:00 +10°C° 0 mm 4 mps 757 mmHg 47%
    18:00 +8°C° 0 mm 3 mps 758 mmHg 54%
    19:00 +5°C° 0 mm 3 mps 758 mmHg 62%
    20:00 +6°C° 0 mm 2 mps 758 mmHg 63%
    21:00 +6°C° 0 mm 2 mps 758 mmHg 65%
    22:00 +6°C° 0 mm 2 mps 758 mmHg 66%
    23:00 +5°C° 0 mm 2 mps 758 mmHg 68%

    25 March, Monday

    Time Temperature Precipitation Wind Pressure Humidity
    00:00 +5°C° 0 mm 2 mps 757 mmHg 70%
    01:00 +4°C° 0 mm 2 mps 757 mmHg 72%
    02:00 +4°C° 0 mm 2 mps 757 mmHg 74%
    03:00 +4°C° 0 mm 1 mps 756 mmHg 77%
    04:00 +4°C° 0 mm 1 mps 756 mmHg 79%
    05:00 +4°C° 0 mm 1 mps 756 mmHg 77%
    06:00 +5°C° 0 mm 1 mps 755 mmHg 75%
    07:00 +6°C° 0 mm 1 mps 755 mmHg 73%
    08:00 +7°C° 0 mm 1 mps 754 mmHg 70%
    09:00 +8°C° 0 mm 1 mps 754 mmHg 67%
    10:00 +9°C° 0 mm 1 mps 753 mmHg 64%
    11:00 +10°C° 0.1 mm 1 mps 751 mmHg 62%
    12:00 +10°C° 0.1 mm 2 mps 750 mmHg 59%
    13:00 +12°C° 0.1 mm 2 mps 749 mmHg 57%
    14:00 +10°C° 1.1 mm 2 mps 748 mmHg 65%
    15:00 +9°C° 1.1 mm 2 mps 747 mmHg 74%
    16:00 +8°C° 1.1 mm 2 mps 746 mmHg 83%
    17:00 +7°C° 3.5 mm 3 mps 747 mmHg 85%
    18:00 +4°C° 3.5 mm 4 mps 747 mmHg 87%
    19:00 +1°C° 3.5 mm 4 mps 747 mmHg 90%
    20:00 -1°C° 0.8 mm 5 mps 749 mmHg 87%
    21:00 -4°C° 0.8 mm 6 mps 750 mmHg 84%
    22:00 -5°C° 0.8 mm 6 mps 751 mmHg 81%
    23:00 -6°C° 0 mm 6 mps 752 mmHg 76%

    26 March, Tuesday

    Time Temperature Precipitation Wind Pressure Humidity
    00:00 -9°C° 0 mm 6 mps 754 mmHg 72%
    01:00 -10°C° 0 mm 6 mps 755 mmHg 67%
    02:00 -10°C° 0 mm 6 mps 756 mmHg 68%
    03:00 -10°C° 0 mm 5 mps 757 mmHg 69%
    04:00 -9°C° 0 mm 4 mps 758 mmHg 70%
    05:00 -10°C° 0 mm 5 mps 759 mmHg 65%
    06:00 -10°C° 0 mm 5 mps 760 mmHg 59%
    07:00 -10°C° 0 mm 5 mps 761 mmHg 53%
    08:00 -10°C° 0 mm 5 mps 761 mmHg 49%
    09:00 -8°C° 0 mm 5 mps 762 mmHg 45%
    10:00 -7°C° 0 mm 5 mps 762 mmHg 41%
    11:00 -7°C° 0 mm 5 mps 763 mmHg 40%
    12:00 -6°C° 0 mm 5 mps 763 mmHg 39%
    13:00 -6°C° 0 mm 5 mps 763 mmHg 39%
    14:00 -6°C° 0 mm 5 mps 764 mmHg 39%
    15:00 -7°C° 0 mm 5 mps 764 mmHg 40%
    16:00 -8°C° 0 mm 6 mps 765 mmHg 41%
    17:00 -8°C° 0 mm 5 mps 766 mmHg 44%
    18:00 -10°C° 0 mm 5 mps 767 mmHg 48%
    19:00 -10°C° 0 mm 4 mps 768 mmHg 51%
    20:00 -11°C° 0 mm 4 mps 769 mmHg 51%
    21:00 -11°C° 0 mm 4 mps 769 mmHg 51%
    22:00 -12°C° 0 mm 4 mps 770 mmHg 51%
    23:00 -12°C° 0 mm 3 mps 770 mmHg 52%
    Show more